TimeEST,TemperatureF,Dew PointF,Humidity,Sea Level PressureIn,VisibilityMPH,Wind Direction,Wind SpeedMPH,Gust SpeedMPH,PrecipitationIn,Events,Conditions,WindDirDegrees,DateUTC
12:05 AM,19.4,15.8,86,29.86,1.2,WNW,6.9,-,0.00,Snow,Light Snow,290,2013-02-17 05:05:00
12:17 AM,19.4,15.8,86,29.86,0.8,West,9.2,-,0.00,Snow,Light Snow,260,2013-02-17 05:17:00
12:25 AM,19.4,14.0,80,29.86,1.2,West,12.7,20.7,0.00,Snow,Light Snow,280,2013-02-17 05:25:00
12:46 AM,19.4,14.0,80,29.86,2.0,WNW,16.1,24.2,0.00,Snow,Light Snow,300,2013-02-17 05:46:00
12:51 AM,19.9,14.0,78,29.95,2.5,WNW,12.7,24.2,0.00,Snow,Light Snow,290,2013-02-17 05:51:00
1:05 AM,19.4,14.0,80,29.86,1.2,WNW,17.3,24.2,0.00,Snow,Light Snow,290,2013-02-17 06:05:00
1:33 AM,19.4,12.2,74,29.87,1.0,WNW,12.7,23.0,0.00,Snow,Light Snow,290,2013-02-17 06:33:00
1:41 AM,19.4,12.2,74,29.87,2.0,WNW,12.7,-,0.00,Snow,Light Snow,290,2013-02-17 06:41:00
1:51 AM,19.0,12.0,74,29.97,1.0,West,16.1,23.0,0.00,Snow,Light Snow,280,2013-02-17 06:51:00
1:57 AM,17.6,12.2,79,29.87,0.2,WNW,12.7,21.9,0.00,Snow,Heavy Snow,300,2013-02-17 06:57:00
2:02 AM,17.6,12.2,79,29.87,0.5,West,13.8,19.6,0.01,Snow,Snow,280,2013-02-17 07:02:00
2:08 AM,17.6,12.2,79,29.87,1.0,West,13.8,21.9,0.01,Snow,Light Snow,270,2013-02-17 07:08:00
2:17 AM,17.6,10.4,73,29.88,2.0,WNW,15.0,23.0,0.01,Snow,Light Snow,290,2013-02-17 07:17:00
2:27 AM,17.6,10.4,73,29.87,4.0,West,13.8,21.9,0.01,Snow,Light Snow,280,2013-02-17 07:27:00
2:51 AM,17.1,9.0,71,29.98,4.0,West,15.0,25.3,0.01,Snow,Light Snow,270,2013-02-17 07:51:00
3:26 AM,15.8,8.6,73,29.88,1.8,West,11.5,21.9,0.00,Snow,Light Snow,280,2013-02-17 08:26:00
3:46 AM,15.8,10.4,79,29.88,0.8,WNW,9.2,18.4,0.00,Snow,Light Snow,300,2013-02-17 08:46:00
3:51 AM,16.0,10.0,77,29.98,1.0,WNW,11.5,18.4,0.00,Snow,Light Snow,290,2013-02-17 08:51:00
3:57 AM,15.8,8.6,73,29.88,2.0,WNW,10.4,18.4,0.00,Snow,Light Snow,290,2013-02-17 08:57:00
4:04 AM,15.8,8.6,73,29.88,1.2,WNW,10.4,18.4,0.00,Snow,Light Snow,300,2013-02-17 09:04:00
4:23 AM,15.8,10.4,79,29.89,0.8,West,8.1,-,0.00,Snow,Light Snow,280,2013-02-17 09:23:00
4:31 AM,15.8,10.4,79,29.89,0.8,West,5.8,-,0.01,Snow,Light Snow,280,2013-02-17 09:31:00
4:35 AM,15.8,10.4,79,29.89,1.0,West,10.4,-,0.01,Snow,Light Snow,280,2013-02-17 09:35:00
4:51 AM,16.0,10.0,77,29.99,1.0,WNW,8.1,-,0.01,Snow,Light Snow,290,2013-02-17 09:51:00
5:00 AM,15.8,8.6,73,29.90,2.0,WNW,11.5,23.0,0.00,Snow,Light Snow,300,2013-02-17 10:00:00
5:17 AM,15.8,8.6,73,29.91,0.8,NW,9.2,21.9,0.00,Snow,Light Snow,310,2013-02-17 10:17:00
5:25 AM,14.0,8.6,79,29.91,0.5,West,9.2,20.7,0.00,Snow,Snow,280,2013-02-17 10:25:00
5:35 AM,14.0,8.6,79,29.91,0.5,West,15.0,23.0,0.01,Snow,Snow,280,2013-02-17 10:35:00
5:51 AM,14.0,9.0,80,30.01,0.5,WNW,8.1,-,0.01,Snow,Snow,300,2013-02-17 10:51:00
6:09 AM,14.0,8.6,79,29.92,0.2,West,16.1,24.2,0.02,Snow,Heavy Snow,280,2013-02-17 11:09:00
6:19 AM,12.2,8.6,85,29.92,0.2,West,13.8,24.2,0.02,Snow,Heavy Snow,280,2013-02-17 11:19:00
6:27 AM,12.2,8.6,85,29.93,0.5,WNW,8.1,20.7,0.02,Snow,Snow,290,2013-02-17 11:27:00
6:38 AM,12.2,6.8,79,29.93,1.0,West,11.5,20.7,0.02,Snow,Light Snow,280,2013-02-17 11:38:00
6:51 AM,12.9,8.1,81,30.04,1.8,WNW,6.9,-,0.02,Snow,Light Snow,290,2013-02-17 11:51:00
7:07 AM,12.2,8.6,85,29.94,0.5,West,11.5,17.3,0.00,Fog-Snow,Snow,270,2013-02-17 12:07:00
7:15 AM,12.2,6.8,79,29.94,0.2,West,11.5,-,0.01,Snow,Heavy Snow,280,2013-02-17 12:15:00
7:22 AM,12.2,8.6,85,29.95,0.2,WNW,8.1,-,0.02,Fog-Snow,Heavy Snow,290,2013-02-17 12:22:00
7:42 AM,10.4,6.8,85,29.96,0.5,NW,6.9,-,0.04,Fog-Snow,Snow,310,2013-02-17 12:42:00
7:51 AM,10.9,7.0,84,30.08,0.8,NW,5.8,-,0.04,Snow,Light Snow,310,2013-02-17 12:51:00
8:07 AM,10.4,6.8,85,29.98,1.0,WNW,6.9,-,0.00,Snow,Light Snow,290,2013-02-17 13:07:00
8:22 AM,10.4,3.2,73,29.98,2.0,WNW,13.8,21.9,0.00,Snow,Light Snow,290,2013-02-17 13:22:00
8:31 AM,10.4,1.4,67,29.98,4.0,WNW,8.1,18.4,0.00,Snow,Light Snow,290,2013-02-17 13:31:00
8:51 AM,10.9,3.0,70,30.11,4.0,WNW,8.1,18.4,0.00,Snow,Light Snow,290,2013-02-17 13:51:00
9:51 AM,12.0,3.0,67,30.14,4.0,WSW,9.2,-,0.00,Snow,Light Snow,250,2013-02-17 14:51:00
10:09 AM,12.2,1.4,62,30.02,5.0,West,11.5,-,0.01,Snow,Light Snow,260,2013-02-17 15:09:00
10:32 AM,12.2,3.2,67,30.03,5.0,West,8.1,-,0.01,Snow,Light Snow,260,2013-02-17 15:32:00
10:51 AM,12.9,3.9,67,30.15,3.0,WSW,12.7,18.4,0.01,Snow,Light Snow,250,2013-02-17 15:51:00
11:51 AM,15.1,5.0,64,30.15,2.5,West,11.5,18.4,0.01,Snow,Light Snow,270,2013-02-17 16:51:00
12:19 PM,15.8,6.8,68,30.03,1.2,WNW,9.2,-,0.00,Snow,Light Snow,290,2013-02-17 17:19:00
12:47 PM,15.8,5.0,62,30.03,3.0,West,11.5,19.6,0.00,Snow,Light Snow,280,2013-02-17 17:47:00
12:51 PM,15.1,5.0,64,30.14,4.0,West,8.1,19.6,0.00,Snow,Light Snow,280,2013-02-17 17:51:00
1:05 PM,15.8,5.0,62,30.03,2.0,WNW,13.8,17.3,0.00,Snow,Light Snow,300,2013-02-17 18:05:00
1:27 PM,15.8,3.2,58,30.03,4.0,WNW,8.1,-,0.00,Snow,Light Snow,300,2013-02-17 18:27:00
1:35 PM,15.8,3.2,58,30.03,9.0,West,15.0,21.9,0.00,,Overcast,260,2013-02-17 18:35:00
1:51 PM,16.0,3.9,59,30.14,5.0,WNW,13.8,19.6,0.00,Snow,Light Snow,290,2013-02-17 18:51:00
2:43 PM,15.8,6.8,68,30.05,2.5,WNW,15.0,23.0,0.00,Snow,Light Snow,290,2013-02-17 19:43:00
2:51 PM,16.0,6.1,65,30.17,1.5,West,13.8,21.9,0.00,Snow,Light Snow,260,2013-02-17 19:51:00
2:59 PM,17.6,6.8,63,30.05,2.0,WNW,11.5,20.7,0.00,Snow,Light Snow,290,2013-02-17 19:59:00
3:07 PM,17.6,5.0,58,30.05,9.0,West,8.1,18.4,0.00,,Overcast,260,2013-02-17 20:07:00
3:26 PM,17.6,3.2,53,30.06,9.0,SW,10.4,20.7,0.00,,Mostly Cloudy,230,2013-02-17 20:26:00
3:51 PM,17.1,3.9,56,30.17,5.0,West,10.4,18.4,0.00,Snow,Light Snow,280,2013-02-17 20:51:00
4:51 PM,16.0,6.1,65,30.19,9.0,WSW,5.8,-,0.00,,Mostly Cloudy,240,2013-02-17 21:51:00
5:09 PM,15.8,6.8,68,30.07,2.0,West,6.9,-,0.00,Snow,Light Snow,260,2013-02-17 22:09:00
5:15 PM,15.8,8.6,73,30.08,2.0,Variable,5.8,-,0.00,Snow,Light Snow,0,2013-02-17 22:15:00
5:24 PM,17.6,6.8,63,30.08,7.0,WNW,6.9,-,0.00,Snow,Light Snow,290,2013-02-17 22:24:00
5:38 PM,15.8,6.8,68,30.08,2.0,WNW,10.4,21.9,0.00,Snow,Light Snow,300,2013-02-17 22:38:00
5:42 PM,15.8,6.8,68,30.09,1.8,WNW,8.1,21.9,0.00,Snow,Light Snow,290,2013-02-17 22:42:00
5:45 PM,15.8,6.8,68,30.09,2.5,WNW,9.2,-,0.00,Snow,Light Snow,300,2013-02-17 22:45:00
5:51 PM,16.0,7.0,68,30.21,5.0,Variable,6.9,-,0.00,Snow,Light Snow,0,2013-02-17 22:51:00
6:02 PM,15.8,6.8,68,30.09,10.0,Variable,6.9,-,0.00,,Overcast,0,2013-02-17 23:02:00
6:51 PM,17.1,3.0,54,30.23,10.0,West,9.2,17.3,0.00,,Overcast,280,2013-02-17 23:51:00
7:51 PM,17.1,1.9,52,30.26,10.0,Variable,5.8,-,N/A,,Overcast,0,2013-02-18 00:51:00
8:51 PM,17.1,3.0,54,30.28,10.0,West,6.9,-,N/A,,Overcast,260,2013-02-18 01:51:00
9:51 PM,16.0,3.0,57,30.29,10.0,WNW,8.1,-,N/A,,Overcast,300,2013-02-18 02:51:00
10:51 PM,12.9,1.9,62,30.31,10.0,NW,3.5,-,N/A,,Clear,310,2013-02-18 03:51:00